"Pseudo-MPEC" for 2020 GL2 = BepiColombo

Created 2020 Apr 13 16:04:41 UT using Find_Orb

Click here for an explanation of pseudo-MPECs

TLEs are available for this object, and for some of the other objects on these pages. Note that the TLEs in question are in a non-standard format. (TLEs will not, in the ordinary run of things, work with a hyperbolic flyby.)

This pseudo-MPEC includes data from the discovery MPEC, plus two observations sent in by Nick James from (970) Chelsmford. Note that the MPC has 'deleted' 2020 GL2 after realizing it's not actually a rock.

The data are good enough to show that the spacecraft will indeed go by Venus on 2020 October 15, though by a much larger 'miss' distance than is actually planned. The next flyby is of Venus again on 2021 August 11; the data (at least thus far) don't constrain the orbit that far out. (And there may be a maneuver planned/required in between.)

 
 Astrometry: 
     K20G02L*KC2020 04 10.88313709 17 28.49 +02 43 20.8          15.0 GVEG096Z80
     K20G02L KC2020 04 10.88603009 17 19.51 +02 44 05.1          14.9 GVEG096Z80
     K20G02L KC2020 04 10.88892409 17 10.63 +02 44 49.2          15.0 GVEG096Z80
     K20G02L KC2020 04 10.89181809 17 01.84 +02 45 32.8          14.9 GVEG096Z80
     K20G02L KC2020 04 11.88931709 03 13.31 +04 36 21.0          16.9 GVEG096Z80
     K20G02L KC2020 04 11.89394709 03 09.34 +04 36 33.6          16.9 GVEG096Z80
     K20G02L KC2020 04 11.89857609 03 05.51 +04 36 45.1          16.7 GVEG096Z80
2018-080A     CK200411:215032   135.72968   +04.61929            16.4 RV     970
2018-080A     CK200411:215817   135.71197   +04.62304            16.6 RV     970
     K20G02L  C2020 04 12.28225309 01 23.758+05 04 52.27         17.16GVEG096F52
     K20G02L  C2020 04 12.30618409 01 02.578+05 05 25.31         17.23GVEG096F52
     K20G02L  C2020 04 12.31743809 00 53.029+05 05 39.57         17.26GVEG096F52
     K20G02L  C2020 04 13.17506 08 58 34.71 +05 18 20.7          17.9 GVEG096703
     K20G02L  C2020 04 13.18031 08 58 31.95 +05 18 24.5          17.9 GVEG096703
     K20G02L  C2020 04 13.18557 08 58 29.24 +05 18 28.0          18.2 GVEG096703
     K20G02L  C2020 04 13.22944 08 58 13.64 +05 16 33.6          17.9  rEG096718
     K20G02L  C2020 04 13.23123 08 58 12.87 +05 16 34.9          17.7  rEG096718
     K20G02L  C2020 04 13.23300 08 58 12.17 +05 16 35.2          17.6  rEG096718
     K20G02L  C2020 04 13.23478 08 58 11.44 +05 16 36.9          17.4  rEG096718
     K20G02L  C2020 04 13.23656 08 58 10.72 +05 16 37.6          17.4  rEG096718
     K20G02L  C2020 04 13.23833 08 58 10.00 +05 16 38.9          17.5  rEG096718
     K20G02L  C2020 04 13.25072 08 57 59.18 +05 19 03.9          17.9 GVEG096703
     K20G02L  C2020 04 13.25223 08 57 58.59 +05 19 04.2          17.8 GVEG096703
     K20G02L  C2020 04 13.25378 08 57 57.96 +05 19 05.1          17.8 GVEG096703
     K20G02L  C2020 04 13.25535 08 57 57.38 +05 19 05.9          17.7 GVEG096703
     K20G02L  C2020 04 13.26934 08 57 52.23 +05 19 11.2          17.8 GVEG096I52
     K20G02L  C2020 04 13.27495 08 57 50.33 +05 19 12.9                VEG096I52
     K20G02L  C2020 04 13.27510 08 57 50.23 +05 19 13.4          17.7 GVEG096I52
     K20G02L  C2020 04 13.28071 08 57 48.36 +05 19 15.5          17.8 GVEG096I52
     K20G02L KC2020 04 13.39418 08 58 03.14 +05 42 39.8          16.8 RqEG096E94
     K20G02L KC2020 04 13.40092 08 58 00.17 +05 42 40.6          16.8 RqEG096E94
     K20G02L KC2020 04 13.40555 08 57 58.30 +05 42 41.7          17.9 VqEG096E94
     K20G02L KC2020 04 13.40727 08 57 57.51 +05 42 41.5          16.8 RqEG096E94
     K20G02L KC2020 04 13.41442 08 57 54.61 +05 42 42.7          16.8 RqEG096E94
     K20G02L KC2020 04 13.41592 08 57 53.99 +05 42 42.8          17.9 VqEG096E94
     K20G02L KC2020 04 13.42096 08 57 51.93 +05 42 43.4          16.8 RqEG096E94
     K20G02L KC2020 04 13.42629 08 57 49.85 +05 42 44.0          18.0 VqEG096E94
     K20G02L KC2020 04 13.42773 08 57 49.30 +05 42 43.1          16.9 RqEG096E94
     K20G02L KC2020 04 13.43492 08 57 46.56 +05 42 44.5          16.9 RqEG096E94
     K20G02L KC2020 04 13.43666 08 57 45.90 +05 42 44.5          18.0 VqEG096E94
     K20G02L [C2020 04 13.43966 08 58 08.63 +05 41 17.3          17.9 GVEG096Q62
     K20G02L [C2020 04 13.44154 08 58 07.70 +05 41 17.9          17.9 GVEG096Q62
     K20G02L [C2020 04 13.44367 08 58 06.66 +05 41 18.3          17.8 GVEG096Q62
     K20G02L KC2020 04 13.44375 08 57 43.28 +05 42 43.8          16.9 RqEG096E94
     K20G02L KC2020 04 13.45336 08 57 40.06 +05 42 45.1          16.9 RqEG096E94

Station data:
(703) Catalina Sky Survey  (N32.417006 W110.732640)  US/Arizona.  Observers
   T. A. Pruyne, B. M. Africano, E. J. Christensen, G. A. Farneth, D. C.
   Fuls, A. R. Gibbs, A. D. Grauer, H. Gröller, J. A. Johnson, R. A.
   Kowalski, S. M. Larson, G. J. Leonard, D. Rankin, R. L. Seaman, F. C.
   Shelly. 0.68 m Schmidt + 10K CCD.
(718) Tooele  (N40.641408 W112.295800)  US/Utah.  Observer P. Wiggins. 0.35-m
   f/5.5 Schmidt-Cassegrain + CCD.
(970) Chelmsford  (N51.744716 E0.495400)  UK.  Observer N. James.
(E94) Gisborne (Possum Observatory)  (S38.629922 E177.883310)  New Zealand.
(F52) Pan-STARRS 2, Haleakala  (N20.707384 W156.255910)  US/Hawaii. 1.8-m
   Ritchey-Chrétien + CCD.
(I52) Steward Observatory, Mt. Lemmon Station  (N32.442547 W110.788920)
   US/Arizona.  Observers T. A. Pruyne, B. M. Africano, E. J. Christensen, G.
   A. Farneth, D. C. Fuls, A. R. Gibbs, A. D. Grauer, H. Gröller, J. A.
   Johnson, R. A. Kowalski, S. M. Larson, G. J. Leonard, D. Rankin, R. L.
   Seaman, F. C. Shelly. 1.0-m reflector + CCD.
(Q62) iTelescope Observatory, Siding Spring  (S31.273289 E149.064420)
   Australia/NSW. 0.50-m f/6.8 astrograph + CCD + focal reducer, 0.70-m f/6.6
   astrograph + CCD.
(Z80) Northolt Branch Observatory  (N51.554661 W0.371920)  UK.  Observer G.
   Wells. Measurer D. Bamberger. 0.25-m f/8 Ritchey-Chrétien + CCD.

Orbital elements:  2020 GL2 = BepiColombo (Earth flyby) 
   Perigee 2020 Apr 10.184773 +/- 5.9e-5 TT =  4:26:04 (JD 2458949.684773)
Epoch 2020 Apr 10.2 TT = JDT 2458949.7                        Find_Orb
q 19059.341969 +/- 6.75             (J2000 equator)
H   26.2  G 0.15                    Peri.  252.9452675 +/- 0.018
                                    Node   149.5276990 +/- 0.008
e   1.758513890 +/- 0.000469        Incl.  159.5060123 +/- 0.00047
From 45 observations 2020 Apr. 10-13; mean residual 0".362

Orbital elements:  2020 GL2 = BepiColombo (heliocentric) 
   Perihelion 2020 Sep 9.712546 +/- 0.00486 TT = 17:06:04 (JD 2459102.212546)
Epoch 2020 Apr 30.0 TT = JDT 2458969.5   Earth MOID: 0.0001   Ve: 0.0003
M 183.4152247385 +/- 0.00055        (J2000 ecliptic)          Find_Orb
n   1.3305808704 +/- 4.46e-5        Peri.   14.9109162 +/- 0.0006
a   0.8186693521 +/- 1.83e-5        Node    20.2315737 +/- 0.00006
e   0.236766687 +/- 2.87e-5         Incl.    1.6795613 +/- 0.00025
P   0.74/270.55d           H 26.2   G  0.15   U  6.0
q 0.6248357212 +/- 3.74e-5    Q 1.0125029829 +/- 8.41e-7
From 45 observations 2020 Apr. 10-13; mean residual 0".362

Orbital elements:  2020 GL2 = BepiColombo (Venus flyby) 
   Perivenus 2020 Oct 15.214994 +/- 0.00462 TT =  5:09:35 (JD 2459137.714994)
Epoch 2020 Oct 15.0 TT = JDT 2459137.5                        Find_Orb
q136306.10276 +/- 23922             (J2000 ecliptic)
H   26.2  G 0.15                    Peri.  200.4598120 +/- 8
                                    Node    44.2711354 +/- 7
e  27.317195411 +/- 4.59            Incl.  168.3484224 +/- 0.8
From 45 observations 2020 Apr. 10-13; mean residual 0".362
Residuals in arcseconds: 
200410 Z80 .195+ .211+    200413 718 .117+ .322+    200413 E94 .938- .355-
200410 Z80 .038+ .088+    200413 718 .284- .545+    200413 E94 .455+ .158+
200410 Z80 .084+ .142+    200413 718 .153+ .211-    200413 E94 .569- .243-
200410 Z80 .132+ .086+    200413 718 .122+ .436+    200413 E94 .196+ .212+
200411 Z80 .187+ .040-    200413 718 .156+ .093+    200413 E94 .034+ .174+
200411 Z80 .199- .328+    200413 718 .045+ .364+    200413 E94 .555- .358+
200411 Z80 .715+ .260-    200413 703 .075- .257+    200413 E94 .381- .593+
200411 970 .130- .097-    200413 703 .040+ .116-    200413 E94 .277- .393-
200411 970 .025- .066-    200413 703 .283- .100+    200413 E94 .460- .661+
200412 F52 .052- .034+    200413 703 .177+ .213+    200413 E94 .661- .597+
200412 F52 1.9m+ .060+    200413 I52 .125+ .074+    200413 Q62 .027+ .340-
200412 F52 .035+ .064+    200413 I52 1.00+ .438-    200413 Q62 .025- .244-
200413 703 .195+ .030+    200413 I52 .277+ 3.9m+    200413 Q62 .059+ .399-
200413 703 .219+ .191+    200413 I52 .458+ .036-    200413 E94 1.29- .287-
200413 703 .526+ .151+    200413 E94 .068- .185-    200413 E94 .591+ .952+

